Погода в Оусе

Россия / Свердловская область     60°54′24″N   61°31′06″E
темп.,
°C
ветер,
м/с
пор.,
м/с
влажн.,
%
обл.,
%
осадки,
мм/ч
давл.,
гПа
погр.,
м
16 мая, вс
вс1623:00+15ю247682 0.2 101365
02:00+16зюз2768100 0.0 1013128
05:00+14ссз2677100 0.0 1014180
08:00+17ссз237193 0.0 1014404
11:00+19вюв3463100 0.3 1015590
14:00+24ююз344547 0.1 10141636
17:00+22зсз3762100 0.8 1011911
20:00+18в1179100 3.9 101037
17 мая, пн
пн1723:00+15зюз41190100 10.5 1012296
02:00+15юз41282100 0.9 1010369
05:00+14зюз31091100 0.9 1011245
08:00+18зюз3874100 0.0 1011350
11:00+23з694688 0.0 10111846
14:00+25з693357 0.0 10102851
17:00+23з6943100 0.0 10102124
20:00+20з4854100 0.0 1010927
18 мая, вт
вт1823:00+15сз278576 1.3 1011211
02:00+12ссз3895100 0.2 1013429
05:00+10с4991100 0.2 1015469
08:00+8ссз4991100 0.8 1017548
11:00+7с4991100 0.8 1020597
14:00+9с4684100 0.0 1023653
17:00+11с4569100 0.0 1024972
20:00+11с3564100 0.0 10251009
19 мая, ср
ср1923:00+7сз22820 0.0 102641
02:00+6сз22897 0.0 102613
05:00+6зюз008899 0.0 102710
08:00+12ююз1262100 0.0 1027404
11:00+16ю224594 0.0 10261112
14:00+19ююз223889 0.0 10251557
17:00+20юз23355 0.0 10231736
20:00+18ююв254798 0.0 1022143
20 мая, чт
чт2023:00+13ююз39645 0.0 1022176
02:00+11юз23735 0.0 102160
05:00+11зюз37745 0.0 1020113
08:00+19зюз36482 0.0 1019347
11:00+25з45350 0.0 10181206
14:00+27з46275 0.0 10162180
17:00+27з45273 0.0 10162331
20:00+24з493328 0.0 1016426